Flag for Montenegro Weather past 2 weeks in Podgorica, Montenegro

48 °F

Mostly cloudy.

Feels Like: 41 °F
Forecast: 37 / 50 °F
Wind: 20 mph from North

Location: Podgorica Titograd

Current Time: Nov 28, 2015 at 12:48:12 AM

Latest Report: Nov 28, 2015 at 12:00 AM

Visibility: N/A

Pressure: 29.68 "Hg

Humidity: 43%

Dew point: 27 °F

Location of PodgoricaLocation

Historic Weather in Podgorica — Graph


Podgorica temperature yesterday

Maximum temperature yesterday: 52 °F (at 12:00 AM)
Minimum temperature yesterday: 48 °F (at 3:00 AM)
Average temperature yesterday: 49 °F

Past Weeks' High & Low Weather Summary

High72 °F (Nov 13, 1:00 PM)100% (Nov 15, 4:00 AM)30.36 "Hg (Nov 15, 4:00 AM)
Low43 °F (Nov 16, 6:30 AM)35% (Nov 17, 12:30 PM)29.33 "Hg (Nov 21, 8:30 PM)
Average54 °F78%29.95 "Hg
* Reported Nov 12 11:00 PM — Nov 27 11:30 PM, Podgorica, Weather by CustomWeather, © 2015

Note: Actual official high and low records may vary slightly from our data, if they occured in-between our weather recording intervals... More about our weather records


Podgorica weather history for previous 24 hours

Time TempWeatherWind HumidityBarometerVisibility
11:30 PM
Fri, Nov 27
48 °FPartly cloudy.20 mph43%29.68 "HgN/A
11:00 PM48 °FPartly cloudy.16 mph43%29.68 "HgN/A
10:30 PM48 °FMostly cloudy.13 mph46%29.68 "HgN/A
10:00 PM48 °FMostly cloudy.13 mph46%29.68 "HgN/A
9:30 PM48 °FPartly cloudy.12 mph43%29.68 "HgN/A
9:00 PM48 °FPartly cloudy.12 mph46%29.68 "HgN/A
8:30 PM48 °FMostly cloudy.14 mph46%29.68 "HgN/A
8:00 PM48 °FMostly cloudy.12 mph46%29.68 "HgN/A
7:30 PM48 °FMostly cloudy.14 mph46%29.68 "HgN/A
7:00 PM48 °FMostly cloudy.14 mph46%29.65 "HgN/A
6:30 PM48 °FMostly cloudy.16 mph46%29.65 "HgN/A
6:00 PM48 °FMostly cloudy.15 mph46%29.65 "HgN/A
5:30 PM50 °FMostly cloudy.17 mph43%29.65 "HgN/A
5:00 PM50 °FMostly cloudy.15 mph47%29.65 "HgN/A
4:30 PM50 °FMostly cloudy.13 mph50%29.62 "HgN/A
4:00 PM50 °FMore clouds than sun.15 mph43%29.62 "HgN/A
3:30 PM50 °FBroken clouds.14 mph43%29.62 "HgN/A
3:00 PM50 °FBroken clouds.15 mph43%29.62 "HgN/A
2:30 PM50 °FBroken clouds.15 mph43%29.62 "HgN/A
2:00 PM50 °FBroken clouds.16 mph43%29.62 "HgN/A
1:30 PM50 °FBroken clouds.16 mph43%29.62 "HgN/A
1:00 PM50 °FBroken clouds.14 mph43%29.62 "HgN/A
12:30 PM50 °FMostly cloudy.15 mph47%29.65 "HgN/A
12:00 PM50 °FMore clouds than sun.14 mph50%29.65 "HgN/A
11:30 AM50 °FBroken clouds.14 mph50%29.65 "HgN/A
11:00 AM50 °FLight rain. More clouds than sun.15 mph47%29.65 "HgN/A
10:30 AM50 °FMore clouds than sun.16 mph47%29.65 "HgN/A
10:00 AM50 °FMore clouds than sun.16 mph47%29.65 "HgN/A
9:30 AM50 °FBroken clouds.17 mph50%29.65 "HgN/A
9:00 AM50 °FBroken clouds.18 mph50%29.62 "HgN/A
7:30 AM48 °FLight rain. Mostly cloudy.14 mph54%29.62 "HgN/A
7:00 AM48 °FLight rain. Mostly cloudy.17 mph54%29.59 "HgN/A
6:30 AM48 °FLight rain. Mostly cloudy.15 mph58%29.59 "HgN/A
6:00 AM48 °FLight rain. Mostly cloudy.16 mph58%29.59 "HgN/A
5:00 AM50 °FLight rain. Mostly cloudy.15 mph54%29.56 "HgN/A
4:30 AM50 °FMostly cloudy.16 mph50%29.56 "HgN/A
4:00 AM50 °FLight rain. Mostly cloudy.16 mph50%29.56 "HgN/A
3:30 AM50 °FLight rain. Mostly cloudy.18 mph50%29.56 "HgN/A
3:00 AM48 °FLight rain. Passing clouds.17 mph62%29.56 "HgN/A
2:30 AM50 °FLight rain. Passing clouds.15 mph58%29.56 "HgN/A
2:00 AM50 °FLight rain. Passing clouds.14 mph54%29.56 "HgN/A
1:30 AM52 °FPartly cloudy.13 mph47%29.56 "HgN/A
1:00 AM52 °FPartly cloudy.16 mph47%29.56 "HgN/A
12:30 AM52 °FPartly cloudy.16 mph47%29.56 "HgN/A
12:00 AM52 °FPartly cloudy.15 mph47%29.56 "HgN/A
Weather by CustomWeather, © 2015

See weather overviewHow to use our weather pages